Location: Coed Ely
(51.5661°N, 3.4150°W)
Time: 23:54:51
(UTC+00:00)

Cosmos 1844 Rocket - Pass Details

Date: 28 January 2021
Orbit: 825 x 843 km, 71.0° (Epoch: 01 March)

Event Time Altitude Azimuth Distance (km) Brightness Sun altitude
Rises 17:33:56 0° 207° (SSW) 3,388 6.7 -6.2°
Reaches altitude 10° 17:36:22 10° 207° (SSW) 2,456 5.9 -6.5°
Maximum altitude 17:42:01 87° 119° (ESE) 849 2.7 -7.3°
Drops below altitude 10° 17:47:42 10° 31° (NNE) 2,462 4.7 -8.2°
Enters shadow 17:49:39 - 31° (NNE) 3,211 5.3 -8.4°
